Lexington Weather

Lexington, Massachusetts, USA

69°F
6/18/2024 12:55am 
  • Lexington Conditions: Clear
  • Temperature: 69.4°F / 20.8°CColder 0.9°F than last hour.
  • Dew Point: 62.2°FIncreased 0.1°Fsince last hour.
  • Relative Humidity: 78%Increased 3.0% since last hour.
  • Wind: Calm, 10-min avg: Calm, gust: 4 mph
  • Barometer: 30.09 in Steady
  • Visibility: 10 miles
  • Rain Today: 0.00 in
  •   
Southeast Middlesex County, MA - Heat Advisory - Excessive Heat Watch
 - SEE ALL NEARBY ALERTS -

Regional Weather Roundup
for Boston, MA

        
000
ASUS41 KBOX 161310
RWRBOX

REGIONAL WEATHER ROUNDUP
NATIONAL WEATHER SERVICE BOSTON/NORTON MA
900 AM EDT SUN JUN 16 2024

NOTE:  "FAIR" INDICATES FEW OR NO CLOUDS BELOW 12,000 FEET WITH NO 
SIGNIFICANT WEATHER AND/OR OBSTRUCTIONS TO VISIBILITY.

MAZALL-161400-
EASTERN MASSACHUSETTS
  
CITY           SKY/WX    TMP DP  RH WIND       PRES   REMARKS
BOSTON         MOSUNNY   64  43  46 N10       30.28R                  
BEVERLY        SUNNY     64  44  48 N6        30.27R                  
LAWRENCE       SUNNY     63  44  50 N7        30.30R                  
BEDFORD        SUNNY     65  44  46 NE8       30.27R                  
NORWOOD        SUNNY     67  45  45 NE5       30.28R                  
MARSHFIELD     SUNNY     63  48  59 N8        30.27R                  
PLYMOUTH       SUNNY     65  48  54 N10       30.26R                  
TAUNTON        SUNNY     67  46  47 VRB6      30.26R                  
NEW BEDFORD    SUNNY     66  49  54 N6        30.25R                  
$$

MAZALL-161400-
CAPE COD AND THE ISLANDS
  
CITY           SKY/WX    TMP DP  RH WIND       PRES   REMARKS
FALMOUTH       SUNNY     63  50  63 N12       30.27R                  
HYANNIS        SUNNY     64  50  60 N12G18    30.24R                  
CHATHAM        SUNNY     66  48  52 NE8G17    30.25R                  
PROVINCETOWN   SUNNY     64  53  67 N10       30.27R                  
NANTUCKET      SUNNY     66  53  63 N14       30.24R                  
MARTHAS VNYRD  SUNNY     67  53  61 N9        30.25R                  
$$
 
MAZALL-161400-
CENTRAL AND WESTERN MASSACHUSETTS
  
CITY           SKY/WX    TMP DP  RH WIND       PRES   REMARKS
WORCESTER      SUNNY     62  39  42 NE8       30.28S                  
FITCHBURG      SUNNY     65  39  38 NE5       30.29S                  
ORANGE         SUNNY     62  44  51 CALM      30.30S                  
SPRINGFIELD    SUNNY     63  45  51 NE5       30.26R                  
WESTFIELD      SUNNY     64  45  49 N7        30.28S                  
NORTH ADAMS    SUNNY     60  48  64 MISG      30.29S                  
PITTSFIELD     SUNNY     60  44  55 CALM      30.28S                  
$$
 
RIZALL-161400-
RHODE ISLAND
  
CITY           SKY/WX    TMP DP  RH WIND       PRES   REMARKS
PROVIDENCE     MOSUNNY   65  44  46 N8        30.27R                  
NEWPORT        SUNNY     64  47  53 N8        30.26R                  
BLOCK ISLAND   SUNNY     63  50  62 NE9       30.27R                  
SMITHFIELD     SUNNY     63  46  54 NE10      30.28R                  
WESTERLY       SUNNY     66  44  45 NE7       30.26R                  
$$
 
CTZALL-161400-
CONNECTICUT
  
CITY           SKY/WX    TMP DP  RH WIND       PRES   REMARKS
BRADLEY INTL   MOSUNNY   66  46  48 NE8       30.28S                  
HARTFORD       SUNNY     65  46  50 NE8       30.28R                  
PLAINVILLE     SUNNY     64  44  47 VRB5      30.28R                  
BRIDGEPORT     SUNNY     68  43  40 NE12      30.27R                  
DANBURY        SUNNY     66  45  46 VRB3      30.29R                  
GROTON         SUNNY     67  47  48 NE10      30.26R                  
NEW HAVEN      SUNNY     68  46  45 NE12      30.27R                  
CHESTER        SUNNY     66  45  45 NE8       30.28R                  
MERIDEN        SUNNY     66  44  45 N8        30.28R                  
WILLIMANTIC    SUNNY     64  45  49 N3        30.29S                  
OXFORD         SUNNY     63  44  50 VRB7      30.29R                  
$$

MEZ002-015-021-024-NHZ003-005-008-011-012-014-VTZ005-008-161400-
NORTHERN NEW ENGLAND
  
CITY           SKY/WX    TMP DP  RH WIND       PRES   REMARKS
PORTLAND ME    SUNNY     64  41  42 N6        30.27R                  
BANGOR ME      MOSUNNY   61  42  49 CALM      30.23S                  
CONCORD NH     SUNNY     61  45  55 CALM      30.29R                  
MANCHESTER NH  SUNNY     64  42  44 VRB3      30.27R                  
NASHUA NH      SUNNY     63  43  48 VRB6      30.29S                  
PORTSMOUTH NH  MOSUNNY   65  43  45 NE5       30.26S                  
JAFFREY NH     SUNNY     62  42  47 CALM      30.29S                  
KEENE NH       SUNNY     58  44  60 CALM      30.29F                  
BURLINGTON VT  PTSUNNY   61  45  55 SW3       30.30R                  
MT. WASHINGTON MOSUNNY   43   3  19 NW9         N/A                   
$$

NYZ052-076-161400-
EASTERN NEW YORK
  
CITY           SKY/WX    TMP DP  RH WIND       PRES   REMARKS
ALBANY         MOSUNNY   62  45  53 CALM      30.29S                  
NEW YORK CITY  MOSUNNY   66  45  46 NE14      30.26R                  
$$
 
ANZALL-161400-
MARINE OBSERVATIONS
  
STATION/POSITION TIME  TEMP    WIND        PRES    VSBY  WAVE
                       AIR SEA DIR/SP/G                  HT/PER
                 (UTC) (F)     (DEG/KT/KT) (MB)    (MI)  (FT/S)
BOSTON BUOY      1250   60 63   10/ 10/ 14 1025.3R         2/ 5
BUZZARDS BAY     1200   60      20/  9/ 11 1024.5R
NANTUCKET SOUND  1250   64 68   10/ 12/ 16 1023.7R         1/ 3
MASS BAY-STELLWA 1104   61 62   10/ 12/ 16 1024.0R  1 7/8  2/ 4
ISLE OF SHOALS   1200   56     340/  5/  5 1024.3R
S OF BLOCK IS    1256      65                N/A           3/ 8
$$

......................KEY.........................
  SKY/WX - SKY CONDITION/PRESENT WEATHER
  TMP    - TEMPERATURE IN FAHRENHEIT
  DWPT   - DEWPOINT IN FAHRENHEIT
  RH     - RELATIVE HUMIDITY IN PERCENT
  WIND   - DIRECTION AND SPEED IN MPH
  PRES   - MEAN SEA LEVEL PRESSURE IN INCHES OF HG
  WCI    - WIND CHILL INDEX
  VSB    - VISIBILITY IN MILES
  HX     - HEAT INDEX
  TC     - TEMPERATURE IN CELSIUS
  VRB    - VARIABLE WIND DIRECTION
  N/A    - NOT AVAILABLE
  
      

Other recent Regional Weather Roundups

Tue Jun 18, 12:10am EDT

Mon Jun 17, 11:10pm EDT

Mon Jun 17, 10:10pm EDT

Mon Jun 17, 9:10pm EDT

Mon Jun 17, 8:10pm EDT

Mon Jun 17, 7:10pm EDT

Mon Jun 17, 6:10pm EDT

Mon Jun 17, 5:10pm EDT

Mon Jun 17, 4:10pm EDT

Mon Jun 17, 3:10pm EDT

Mon Jun 17, 2:10pm EDT

Mon Jun 17, 1:10pm EDT

Mon Jun 17, 12:10pm EDT

Mon Jun 17, 11:10am EDT

Mon Jun 17, 10:10am EDT

Mon Jun 17, 9:10am EDT

Mon Jun 17, 8:10am EDT

Mon Jun 17, 7:10am EDT

Mon Jun 17, 6:10am EDT

Mon Jun 17, 5:10am EDT

Mon Jun 17, 4:10am EDT

Mon Jun 17, 3:10am EDT

Mon Jun 17, 2:10am EDT

Mon Jun 17, 1:10am EDT

Mon Jun 17, 12:10am EDT

Sun Jun 16, 11:10pm EDT

Sun Jun 16, 10:10pm EDT

Sun Jun 16, 9:10pm EDT

Sun Jun 16, 8:10pm EDT

Sun Jun 16, 7:10pm EDT

Sun Jun 16, 6:10pm EDT

Sun Jun 16, 5:10pm EDT

Sun Jun 16, 4:10pm EDT

Sun Jun 16, 3:10pm EDT

Sun Jun 16, 2:10pm EDT

Sun Jun 16, 1:10pm EDT

Sun Jun 16, 12:10pm EDT

Sun Jun 16, 11:10am EDT

Sun Jun 16, 10:10am EDT

Sun Jun 16, 8:10am EDT

Sun Jun 16, 7:10am EDT

Sun Jun 16, 6:10am EDT

Sun Jun 16, 5:10am EDT

Sun Jun 16, 4:10am EDT

Sun Jun 16, 3:10am EDT

Sun Jun 16, 2:10am EDT

Sun Jun 16, 1:10am EDT

Sun Jun 16, 12:10am EDT

Sat Jun 15, 11:10pm EDT

Sat Jun 15, 10:10pm EDT

Sat Jun 15, 9:10pm EDT

Sat Jun 15, 8:10pm EDT

Sat Jun 15, 7:10pm EDT

Sat Jun 15, 6:10pm EDT

Sat Jun 15, 5:10pm EDT

Sat Jun 15, 4:10pm EDT

Sat Jun 15, 3:10pm EDT

Sat Jun 15, 2:10pm EDT

Sat Jun 15, 1:10pm EDT

Sat Jun 15, 12:10pm EDT

Sat Jun 15, 11:10am EDT

Sat Jun 15, 10:10am EDT

Sat Jun 15, 9:10am EDT

Sat Jun 15, 8:10am EDT

Sat Jun 15, 7:10am EDT

Sat Jun 15, 6:10am EDT

Sat Jun 15, 5:10am EDT

Sat Jun 15, 4:10am EDT

Sat Jun 15, 3:10am EDT

Sat Jun 15, 2:10am EDT

Sat Jun 15, 1:10am EDT

Sat Jun 15, 12:10am EDT

Fri Jun 14, 11:10pm EDT

Fri Jun 14, 10:10pm EDT

Fri Jun 14, 9:10pm EDT

Fri Jun 14, 8:10pm EDT

Fri Jun 14, 7:10pm EDT

Fri Jun 14, 6:10pm EDT

Fri Jun 14, 5:10pm EDT

Fri Jun 14, 4:10pm EDT

Fri Jun 14, 3:10pm EDT

Fri Jun 14, 2:10pm EDT

Fri Jun 14, 1:10pm EDT

Fri Jun 14, 12:10pm EDT

Fri Jun 14, 11:10am EDT

Fri Jun 14, 10:10am EDT

Fri Jun 14, 9:10am EDT

Fri Jun 14, 8:10am EDT

Fri Jun 14, 7:10am EDT

Fri Jun 14, 6:10am EDT

Fri Jun 14, 5:10am EDT

Fri Jun 14, 4:10am EDT

Fri Jun 14, 3:10am EDT

Fri Jun 14, 2:10am EDT

Fri Jun 14, 1:10am EDT

Fri Jun 14, 12:10am EDT

Thu Jun 13, 11:10pm EDT

Thu Jun 13, 10:10pm EDT

Thu Jun 13, 9:10pm EDT

Thu Jun 13, 8:10pm EDT

Thu Jun 13, 7:10pm EDT

Thu Jun 13, 6:10pm EDT

Thu Jun 13, 5:10pm EDT

Thu Jun 13, 4:10pm EDT

Thu Jun 13, 3:10pm EDT

Thu Jun 13, 2:10pm EDT

Thu Jun 13, 1:10pm EDT

Thu Jun 13, 12:10pm EDT

Thu Jun 13, 11:10am EDT

Thu Jun 13, 10:10am EDT

Thu Jun 13, 9:10am EDT

Thu Jun 13, 8:10am EDT

Thu Jun 13, 7:10am EDT

Thu Jun 13, 6:10am EDT

Thu Jun 13, 5:10am EDT

Thu Jun 13, 4:10am EDT

Thu Jun 13, 3:10am EDT

Thu Jun 13, 2:10am EDT

Thu Jun 13, 1:10am EDT

Thu Jun 13, 12:10am EDT

Wed Jun 12, 11:10pm EDT

Wed Jun 12, 10:10pm EDT

Wed Jun 12, 9:10pm EDT

Wed Jun 12, 8:10pm EDT

Wed Jun 12, 7:10pm EDT

Wed Jun 12, 6:10pm EDT

Wed Jun 12, 5:10pm EDT

Wed Jun 12, 4:10pm EDT

Wed Jun 12, 3:10pm EDT

Wed Jun 12, 2:10pm EDT

Wed Jun 12, 1:10pm EDT

Wed Jun 12, 12:10pm EDT

Wed Jun 12, 11:10am EDT

Wed Jun 12, 10:10am EDT

Wed Jun 12, 9:10am EDT

Wed Jun 12, 8:10am EDT

Wed Jun 12, 7:10am EDT

Wed Jun 12, 6:10am EDT

Wed Jun 12, 5:10am EDT

Wed Jun 12, 4:10am EDT

Wed Jun 12, 3:10am EDT

Wed Jun 12, 2:10am EDT

Wed Jun 12, 1:10am EDT

Wed Jun 12, 12:10am EDT

Tue Jun 11, 11:10pm EDT

Tue Jun 11, 10:10pm EDT

Tue Jun 11, 9:10pm EDT

Tue Jun 11, 8:10pm EDT

Tue Jun 11, 7:10pm EDT

Tue Jun 11, 6:10pm EDT

Tue Jun 11, 5:10pm EDT

Tue Jun 11, 4:10pm EDT

Tue Jun 11, 3:10pm EDT

Tue Jun 11, 2:10pm EDT

Tue Jun 11, 1:10pm EDT

Tue Jun 11, 12:10pm EDT

Tue Jun 11, 11:10am EDT

Tue Jun 11, 10:10am EDT

Tue Jun 11, 9:10am EDT

Tue Jun 11, 8:10am EDT

Tue Jun 11, 7:10am EDT

Tue Jun 11, 6:10am EDT

Tue Jun 11, 5:10am EDT

Tue Jun 11, 4:10am EDT

Tue Jun 11, 3:10am EDT

Tue Jun 11, 2:10am EDT

Tue Jun 11, 1:10am EDT